Location: Las Navas
(40.6024°N, 4.3345°W)
Time: 09:30:26
(UTC+00:00)

Cosmos 1703 - Pass Details

Date: 03 April 2020
Orbit: 524 x 540 km, 82.5° (Epoch: 29 May)

Event Time Altitude Azimuth Distance (km) Brightness Sun altitude
Rises 20:00:32 0° 2° (N) 2,698 7.1 -14.8°
Reaches altitude 10° 20:02:53 10° 14° (NNE) 1,805 6.0 -15.2°
Maximum altitude 20:06:25 30° 77° (ENE) 976 4.1 -15.8°
Enters shadow 20:06:56 29° 92° (E) 1,000 4.1 -15.9°
